Location: Malanoce
(44.2500°N, 7.4667°E)
Time: 05:24:59
(UTC+00:00)

RESURS DK-1 - Pass Details

Date: 17 November 2025
Orbit: 524 x 535 km, 69.9° (Epoch: 09 December)

Event Time Altitude Azimuth Distance (km) Brightness Sun altitude
Rises 17:04:27 0° 335° (NNW) 2,696 6.0 -11.4°
Reaches altitude 10° 17:06:40 10° 339° (NNW) 1,801 5.0 -11.8°
Maximum altitude 17:10:40 63° 61° (ENE) 601 2.2 -12.5°
Drops below altitude 10° 17:14:37 10° 143° (SE) 1,785 4.7 -13.1°
Sets 17:16:48 0° 147° (SSE) 2,670 5.6 -13.5°
